| time (UTC) | temp F | wind direction | speed MPH | gust MPH | rain 1hr in | rain 24hr in | rain mn in | humidity % | barometer mb |
| 20260505055559 | 60 | 248 | 1.0 | 2.0 | 0.00 | 0.00 | 0.00 | 79 | 1009.6 |
| 20260505054558 | 59 | 245 | 1.0 | 2.0 | 0.00 | 0.00 | 0.00 | 78 | 1009.6 |
| 20260505053552 | 59 | 251 | 2.0 | 2.0 | 0.00 | 0.00 | 0.00 | 78 | 1009.6 |
| 20260505052552 | 59 | 242 | 1.0 | 2.0 | 0.00 | 0.00 | 0.00 | 78 | 1009.5 |
| 20260505051549 | 59 | 233 | 1.0 | 2.0 | 0.00 | 0.00 | 0.00 | 78 | 1009.4 |
| 20260505050542 | 59 | 225 | 2.0 | 2.0 | 0.00 | 0.00 | 0.00 | 78 | 1009.5 |
| 20260505041524 | 58 | 0.0 | 2.0 | 0.00 | 0.00 | 0.00 | 80 | 1009.4 | |
| 20260505040520 | 58 | 0.0 | 0.0 | 0.00 | 0.00 | 0.00 | 79 | 1009.3 | |
| 20260505035517 | 58 | 0.0 | 0.0 | 0.00 | 0.00 | 0.00 | 78 | 1009.3 | |
| 20260505034614 | 59 | 0.0 | 0.0 | 0.00 | 0.00 | 0.00 | 76 | 1009.4 | |
| 20260505033610 | 59 | 0.0 | 0.0 | 0.00 | 0.00 | 0.00 | 75 | 1009.6 | |
| 20260505032606 | 59 | 0.0 | 0.0 | 0.00 | 0.00 | 0.00 | 74 | 1009.9 | |
| 20260505031602 | 60 | 0.0 | 2.0 | 0.00 | 0.00 | 0.00 | 74 | 1009.8 | |
| 20260505030558 | 60 | 0.0 | 0.0 | 0.00 | 0.00 | 0.00 | 73 | 1010.1 | |
| 20260505025558 | 60 | 0.0 | 2.0 | 0.00 | 0.00 | 0.00 | 72 | 1010.1 | |
| 20260505024555 | 60 | 136 | 0.0 | 2.0 | 0.00 | 0.00 | 0.00 | 72 | 1010.1 |
| 20260505023548 | 60 | 208 | 1.0 | 2.0 | 0.00 | 0.00 | 0.00 | 72 | 1010.3 |
| 20260505022547 | 61 | 145 | 1.0 | 2.0 | 0.00 | 0.00 | 0.00 | 71 | 1010.3 |
| 20260505021544 | 61 | 97 | 3.0 | 6.0 | 0.00 | 0.00 | 0.00 | 70 | 1010.3 |
| 20260505020535 | 61 | 84 | 4.0 | 9.0 | 0.00 | 0.00 | 0.00 | 71 | 1010.5 |
| 20260505015531 | 61 | 69 | 2.0 | 4.0 | 0.00 | 0.00 | 0.00 | 71 | 1010.6 |
| 20260505014530 | 61 | 73 | 2.0 | 7.0 | 0.00 | 0.00 | 0.00 | 70 | 1010.5 |
| 20260505013527 | 61 | 72 | 5.0 | 9.0 | 0.00 | 0.00 | 0.00 | 70 | 1010.4 |
| 20260505012523 | 60 | 69 | 5.0 | 11.0 | 0.00 | 0.00 | 0.00 | 72 | 1010.6 |
| 20260505011517 | 60 | 66 | 2.0 | 6.0 | 0.00 | 0.00 | 0.00 | 74 | 1011.0 |
| 20260505010614 | 59 | 0.0 | 0.0 | 0.00 | 0.00 | 0.00 | 76 | 1011.1 | |
| 20260505005612 | 60 | 0.0 | 0.0 | 0.00 | 0.00 | 0.00 | 75 | 1011.3 | |
| 20260505004605 | 60 | 0.0 | 2.0 | 0.00 | 0.00 | 0.00 | 72 | 1011.3 | |
| 20260505003601 | 60 | 248 | 0.0 | 2.0 | 0.00 | 0.00 | 0.00 | 73 | 1011.5 |
| 20260505002558 | 60 | 0.0 | 2.0 | 0.00 | 0.00 | 0.00 | 74 | 1011.5 | |
| 20260505001558 | 61 | 226 | 1.0 | 4.0 | 0.00 | 0.00 | 0.00 | 74 | 1011.5 |
| 20260505000555 | 60 | 203 | 1.0 | 2.0 | 0.00 | 0.00 | 0.00 | 72 | 1011.5 |
| 20260504235549 | 61 | 180 | 0.0 | 2.0 | 0.00 | 0.00 | 0.00 | 72 | 1011.7 |
| 20260504234546 | 61 | 225 | 0.0 | 2.0 | 0.00 | 0.00 | 0.00 | 70 | 1011.6 |
| 20260504233542 | 62 | 213 | 0.0 | 2.0 | 0.00 | 0.00 | 0.00 | 68 | 1011.9 |
| 20260504232541 | 62 | 203 | 0.0 | 2.0 | 0.00 | 0.00 | 0.00 | 67 | 1011.9 |
| 20260504231533 | 62 | 248 | 1.0 | 4.0 | 0.00 | 0.00 | 0.00 | 65 | 1011.7 |
| 20260504230530 | 63 | 221 | 1.0 | 4.0 | 0.00 | 0.00 | 0.00 | 64 | 1011.8 |
| 20260504225530 | 63 | 219 | 1.0 | 4.0 | 0.00 | 0.00 | 0.00 | 64 | 1011.8 |
| 20260504224524 | 63 | 242 | 1.0 | 4.0 | 0.00 | 0.00 | 0.00 | 64 | 1011.9 |
| 20260504223523 | 63 | 0.0 | 0.0 | 0.00 | 0.00 | 0.00 | 65 | 1012.0 | |
| 20260504222515 | 63 | 203 | 0.0 | 2.0 | 0.00 | 0.00 | 0.00 | 66 | 1012.0 |
| 20260504221614 | 63 | 102 | 1.0 | 2.0 | 0.00 | 0.00 | 0.00 | 62 | 1012.0 |
| 20260504220607 | 64 | 92 | 1.0 | 4.0 | 0.00 | 0.00 | 0.00 | 62 | 1012.1 |
| 20260504215603 | 64 | 150 | 0.0 | 2.0 | 0.00 | 0.00 | 0.00 | 62 | 1012.1 |
| 20260504214558 | 64 | 205 | 1.0 | 4.0 | 0.00 | 0.00 | 0.00 | 61 | 1012.0 |
| 20260504213555 | 64 | 203 | 0.0 | 2.0 | 0.00 | 0.00 | 0.00 | 61 | 1012.1 |
| 20260504212555 | 64 | 115 | 1.0 | 2.0 | 0.00 | 0.00 | 0.00 | 61 | 1012.3 |
| 20260504211549 | 64 | 218 | 1.0 | 2.0 | 0.00 | 0.00 | 0.00 | 60 | 1012.3 |
| 20260504210548 | 65 | 160 | 1.0 | 4.0 | 0.00 | 0.00 | 0.00 | 60 | 1012.3 |
| 20260504205541 | 65 | 143 | 1.0 | 2.0 | 0.00 | 0.00 | 0.00 | 60 | 1012.2 |
| 20260504204536 | 65 | 210 | 0.0 | 2.0 | 0.00 | 0.00 | 0.00 | 59 | 1012.4 |
| 20260504203533 | 64 | 245 | 2.0 | 4.0 | 0.00 | 0.00 | 0.00 | 60 | 1012.4 |
| 20260504202530 | 64 | 234 | 1.0 | 2.0 | 0.00 | 0.00 | 0.00 | 62 | 1012.5 |
| 20260504201527 | 63 | 158 | 0.0 | 2.0 | 0.00 | 0.00 | 0.00 | 64 | 1012.1 |
| 20260504200523 | 65 | 158 | 0.0 | 2.0 | 0.00 | 0.00 | 0.00 | 61 | 1012.1 |
| 20260504195523 | 66 | 0.0 | 2.0 | 0.00 | 0.00 | 0.00 | 56 | 1012.0 | |
| 20260504194517 | 66 | 180 | 0.0 | 2.0 | 0.00 | 0.00 | 0.00 | 55 | 1012.0 |
| 20260504193617 | 66 | 113 | 0.0 | 2.0 | 0.00 | 0.00 | 0.00 | 54 | 1012.0 |
| 20260504192609 | 67 | 191 | 0.0 | 2.0 | 0.00 | 0.00 | 0.00 | 54 | 1012.0 |
| 20260504191613 | 67 | 90 | 0.0 | 2.0 | 0.00 | 0.00 | 0.00 | 53 | 1011.9 |
| 20260504190601 | 67 | 68 | 0.0 | 2.0 | 0.00 | 0.00 | 0.00 | 53 | 1011.9 |
| 20260504185559 | 67 | 113 | 0.0 | 2.0 | 0.00 | 0.00 | 0.00 | 53 | 1012.0 |
| 20260504184559 | 67 | 0.0 | 0.0 | 0.00 | 0.00 | 0.00 | 53 | 1011.9 | |
| 20260504183551 | 67 | 228 | 1.0 | 2.0 | 0.00 | 0.00 | 0.00 | 52 | 1012.0 |
| 20260504182550 | 68 | 0.0 | 2.0 | 0.00 | 0.00 | 0.00 | 51 | 1011.9 | |
| 20260504181546 | 68 | 0.0 | 2.0 | 0.00 | 0.00 | 0.00 | 50 | 1012.0 | |
| 20260504180539 | 69 | 225 | 0.0 | 2.0 | 0.00 | 0.00 | 0.00 | 49 | 1012.0 |
| 20260504175534 | 69 | 90 | 0.0 | 2.0 | 0.00 | 0.00 | 0.00 | 49 | 1012.1 |
| 20260504174530 | 69 | 197 | 0.0 | 2.0 | 0.00 | 0.00 | 0.00 | 48 | 1012.0 |
| 20260504173530 | 70 | 90 | 0.0 | 2.0 | 0.00 | 0.00 | 0.00 | 47 | 1012.0 |
| 20260504172526 | 70 | 234 | 1.0 | 4.0 | 0.00 | 0.00 | 0.00 | 45 | 1012.0 |
| 20260504171523 | 71 | 207 | 1.0 | 2.0 | 0.00 | 0.00 | 0.00 | 45 | 1012.1 |
| 20260504170516 | 71 | 203 | 0.0 | 2.0 | 0.00 | 0.00 | 0.00 | 44 | 1012.2 |
| 20260504150533 | 74 | 204 | 1.0 | 2.0 | 0.00 | 0.00 | 0.00 | 40 | 1012.3 |
| 20260504140610 | 79 | 187 | 1.0 | 4.0 | 0.00 | 0.00 | 0.00 | 35 | 1012.8 |
| 20260504130548 | 76 | 194 | 1.0 | 4.0 | 0.00 | 0.00 | 0.00 | 37 | 1013.1 |
| 20260504110605 | 72 | 176 | 3.0 | 8.0 | 0.00 | 0.00 | 0.00 | 39 | 1014.0 |
| 20260504100541 | 69 | 189 | 5.0 | 11.0 | 0.00 | 0.00 | 0.00 | 41 | 1014.7 |
| 20260504081600 | 67 | 200 | 2.0 | 6.0 | 0.00 | 0.00 | 0.00 | 47 | 1015.3 |
| 20260504080558 | 66 | 180 | 3.0 | 6.0 | 0.00 | 0.00 | 0.00 | 48 | 1015.4 |